{"data":{"norad_id":65574,"epoch":"2026-05-25T03:04:11.856864Z","epoch_age_seconds":57795,"freshness":"FRESH","line1":"1 65574U 25203K   26145.12791501  .00000134  00000+0  11159-3 0  9990","line2":"2 65574  81.3027  32.2601 0004665 268.6305  91.4317 13.83306709 35491","mean_motion":13.83306709,"eccentricity":0.0004665,"inclination_deg":81.3027,"raan_deg":32.2601,"arg_perigee_deg":268.6305,"mean_anomaly_deg":91.4317,"bstar":0.00011159,"rev_number":3549,"period_min":104.09838907244,"perigee_km":948.76203252482,"apogee_km":955.60121980303,"semimajor_km":7330.3186261639,"source":"CELESTRAK","updated_at":"2026-05-25T13:38:25.170002Z"}}